GFSGL_con_mucape_273.txt.gz
CAPE
1280 1595 1541 1770 1587 1110 1205 1545 1775 1413 1676 1381 1323 996 684 1040 1669 1589 1991 1646 1280 944 1370 1969 1669 1925 1944 1655 1311 1548 1510 1224 960 855 607 940 706 912 920 1179 613 627 1593
1488 1837 1557 1649 1917 1798 1534 1213 1386 1780 1680 1628 1979 1400 1176 1060 1733 1654 1221 1049 1721 1857 1790 1868 1685 1849 1862 1506 1077 986 1098 1236 1253 1128 876 910 879 687 480 571 615 706 701
925 1814 1977 1800 1840 2107 2017 1731 1356 1769 1875 2035 1871 1902 1664 1554 1491 1577 1594 1308 1001 1083 1163 1430 1724 1636 1534 1575 1769 1504 1217 1268 1114 1166 845 1089 825 733 737 619 760 711 878
279 776 1837 2155 1989 2017 2097 2150 1876 1376 1672 1932 1835 1833 1841 1637 1665 1580 1518 1473 1447 1520 1578 1556 1586 1569 1442 1349 1491 1166 1004 1053 856 768 685 643 877 592 435 657 803 761 832
0 470 877 1613 1816 1741 1984 2006 2165 2046 1469 1602 1641 1663 1649 1746 1903 1955 2001 1880 1812 1901 2037 2076 1977 1838 1680 1455 1388 1235 1176 1106 968 620 467 458 301 383 589 876 925 987 451
0 0 412 889 1283 1511 1711 1988 1903 2175 1909 1522 1622 1497 1586 1679 1748 1710 1903 2049 2163 2163 1992 1777 1724 1585 1434 1445 1334 1344 1296 1179 842 761 453 162 121 404 715 860 1135 285 51
0 0 0 288 873 1247 1396 1840 1786 1744 1776 1639 1441 1523 1696 1680 1841 1830 1831 1875 1845 1887 1793 1670 1570 1479 1323 1171 1113 1291 1325 1086 832 772 412 59 0 433 718 1061 542 9 47
0 0 0 0 280 912 1186 1329 1601 1497 843 1413 1377 1553 1500 1797 1881 1764 1765 1790 1695 1559 1671 1570 1468 1296 1307 969 627 721 771 295 618 473 34 83 360 675 808 513 105 68 122
0 0 0 29 234 713 882 920 1106 1334 1187 982 990 506 1517 1827 1987 1872 1810 1524 1379 1207 1056 1164 1189 1160 1072 1025 812 687 686 785 737 390 539 521 543 632 719 158 163 184 231
0 0 0 0 0 400 697 941 1057 1126 1085 952 853 513 547 504 1096 1216 1062 880 895 861 681 653 936 1151 1042 897 863 809 408 966 760 972 848 887 785 257 112 259 332 256 287
0 0 0 0 3 84 415 900 1195 1056 1127 924 827 581 227 726 669 515 405 447 318 375 35 99 456 558 642 722 1017 734 625 556 805 686 752 898 756 219 312 455 353 459 214
0 0 0 0 5 57 443 876 1224 1111 860 785 670 486 514 472 403 177 240 306 299 275 264 316 361 524 295 363 548 661 806 719 592 457 459 524 426 110 312 382 455 281 183
0 0 0 0 0 159 701 1031 1112 1075 907 759 912 863 586 583 440 406 372 234 110 35 80 85 91 157 316 60 204 318 221 227 172 156 114 133 134 134 295 225 109 88 172
0 0 0 0 133 789 894 1298 1271 1104 1078 914 753 615 536 463 342 187 85 49 17 78 146 149 90 57 23 16 0 0 0 37 28 5 12 38 83 134 184 155 136 70 120
0 0 0 121 277 491 790 933 980 934 947 714 579 422 325 247 172 139 102 91 28 1 0 2 0 0 0 5 5 7 7 65 61 39 33 67 112 112 84 51 3 5 50
61 6 47 289 361 352 556 671 911 964 867 715 570 441 289 232 228 126 63 20 1 1 3 4 21 1 1 1 1 2 7 83 74 103 58 83 102 89 42 15 13 12 10
97 208 225 290 459 508 494 651 699 736 756 733 441 456 198 67 58 18 22 32 6 8 5 7 5 25 11 10 12 9 24 23 47 54 54 53 41 23 27 9 28 9 20
103 123 203 320 269 223 243 280 99 203 227 228 233 36 12 30 34 18 2 0 1 0 11 15 5 12 43 17 6 25 0 6 23 33 13 8 20 3 24 20 0 0 1
23 32 57 231 304 109 11 47 46 9 6 19 18 1 0 0 0 0 4 18 15 17 17 4 0 9 0 9 5 1 0 0 0 0 23 6 2 2 6 0 10 4 0
0 0 16 70 131 213 34 3 5 3 2 1 2 5 13 10 2 5 0 1 40 31 71 87 28 0 0 0 0 0 0 0 0 1 0 0 0 0 0 0 0 0 0
0 0 0 1 5 4 11 6 0 0 0 0 0 0 1 0 21 53 70 50 31 21 40 15 39 51 43 44 10 0 0 0 0 0 0 0 0 0 0 0 0 0 0
0 1 0 0 0 0 0 0 0 0 0 13 0 0 6 0 0 0 0 0 0 2 13 24 24 12 84 90 74 53 30 41 30 5 0 0 0 0 0 0 0 0 0
2 3 0 0 0 0 0 0 0 1 0 1 0 0 0 0 0 0 0 0 0 0 0 1 9 26 33 16 32 100 80 45 39 10 3 0 0 0 0 0 0 0 0
5 7 1 1 0 0 0 0 0 0 0 0 0 0 0 0 0 0 0 0 0 0 0 0 0 0 8 10 36 69 71 46 93 37 44 30 7 0 4 0 0 0 0
2 2 0 2 14 22 9 0 0 3 4 0 0 0 0 0 0 0 0 0 0 0 0 0 0 0 0 0 1 9 14 5 14 18 32 23 29 18 5 10 16 2 0
12 16 8 14 19 11 4 3 4 2 6 2 0 1 0 1 4 2 3 7 9 12 11 6 1 0 2 1 0 0 0 0 0 0 1 8 2 15 38 68 37 13 0

GFSGL_con_mucape_276.txt.gz
CAPE
1112 1074 1258 1294 1389 1260 810 948 1374 1336 1301 1150 1298 1133 840 781 686 832 816 763 911 876 581 1262 1621 1590 1471 1372 1528 1522 1345 1069 984 787 662 764 717 636 446 446 453 613 596
101 193 790 1456 1612 1557 1391 903 1051 1374 1440 1213 1509 1369 1114 846 810 819 947 1120 884 815 828 486 471 803 1232 1432 1439 1414 904 684 700 710 582 883 839 567 430 599 322 581 666
0 0 235 832 1780 1640 1733 1545 1053 987 1209 1313 1142 1370 1380 1237 959 733 966 928 1174 1372 1420 1347 1393 1387 1422 1477 1361 1268 1218 1185 917 794 796 715 486 340 522 314 387 591 561
0 0 0 78 875 2100 1974 1846 1649 1373 1044 987 1129 1220 1362 1324 1231 1062 987 1021 915 837 799 830 923 1081 1061 1010 1123 1113 1223 1271 1122 692 714 651 384 371 251 193 285 440 750
0 0 0 0 24 969 1679 1719 1731 1880 1715 1187 1063 1249 1362 1442 1391 1272 1219 1065 1073 1024 1009 960 909 932 1007 1148 1086 1225 1083 1038 1136 711 800 698 391 237 59 206 414 518 420
0 0 0 0 0 2 703 1526 1717 1550 1644 1635 1214 1047 1123 1284 1459 1424 1327 1235 1073 1047 1035 1115 1226 1314 1321 1495 1505 1402 1133 969 882 801 815 689 319 207 37 231 380 588 208
0 0 0 0 0 0 0 605 936 1242 1389 1607 1623 1271 992 1062 1145 1396 1503 1401 1354 1516 1461 1573 1625 1635 1635 1633 1239 1149 992 892 886 877 632 668 549 205 179 152 371 389 212
0 0 0 0 0 0 0 0 375 722 896 1240 1564 1378 1060 556 1025 1194 1336 1403 1488 1533 1759 1754 1585 1509 1464 1271 976 719 647 732 754 900 1067 657 362 444 136 164 388 501 250
0 0 0 0 0 0 0 0 0 159 696 790 1071 1164 962 222 20 96 580 721 748 909 1253 1274 1288 1297 1183 1023 838 593 557 553 432 211 263 451 421 354 187 275 436 448 41
0 0 0 0 0 0 0 0 0 5 186 623 868 922 939 731 661 8 53 26 17 345 808 683 598 547 336 427 394 402 428 495 461 405 320 463 244 228 361 486 487 88 125
0 0 0 0 0 0 0 0 4 8 131 669 861 952 958 881 784 575 219 154 42 195 439 398 118 16 0 18 57 162 398 429 203 249 332 380 424 534 500 520 142 95 208
0 0 0 0 0 0 0 1 3 17 721 719 920 911 934 844 763 557 339 274 283 370 290 85 90 221 202 69 2 186 196 171 178 212 378 278 328 329 336 274 184 253 271
0 0 0 0 0 0 0 0 2 326 981 870 907 900 758 635 504 477 508 348 244 294 197 105 83 60 78 125 245 249 136 5 26 104 138 159 116 130 159 175 352 324 253
0 0 0 0 0 0 0 1 249 719 797 1212 1235 930 808 632 600 572 542 369 202 122 99 66 52 42 36 40 88 31 9 0 67 107 157 71 43 53 64 191 244 57 55
0 0 0 0 0 0 3 43 225 528 855 991 1215 757 829 734 577 498 224 85 64 59 54 5 0 0 0 8 12 20 25 28 14 9 18 27 33 82 115 172 103 62 52
0 1 55 80 96 99 119 176 392 589 976 1044 931 825 646 433 248 197 169 96 62 52 39 8 2 2 0 0 0 1 6 50 51 61 75 76 54 39 129 128 91 66 53
42 164 94 134 460 389 286 405 418 691 598 698 678 539 370 236 196 138 79 69 28 13 0 11 9 15 45 14 2 13 26 51 33 32 30 31 38 14 29 71 14 8 17
78 151 288 284 349 251 158 371 476 413 437 518 404 321 319 312 127 39 8 4 7 4 18 6 0 0 8 18 22 13 15 1 0 7 10 14 4 7 2 5 4 8 32
16 99 196 208 258 71 107 285 321 238 217 312 225 150 110 112 35 60 15 9 13 6 5 2 1 2 11 0 0 0 7 7 0 0 0 1 9 10 13 7 0 0 1
7 0 0 0 2 8 55 16 28 45 128 85 10 6 1 13 7 14 8 8 3 4 40 45 16 4 0 2 0 6 2 13 0 0 0 0 0 0 0 1 3 10 11
13 0 0 0 0 0 7 0 5 1 0 0 0 3 2 6 0 0 34 22 34 30 20 12 27 53 52 28 10 0 0 0 0 0 9 0 0 0 0 0 0 0 0
0 1 0 0 1 0 2 0 0 0 0 0 0 0 0 13 12 0 0 0 13 27 10 9 15 19 21 8 26 48 36 19 0 0 0 0 0 0 0 0 0 0 0
1 6 6 5 2 0 0 0 0 0 0 0 0 0 0 0 0 0 0 0 0 0 0 0 1 10 21 20 17 34 54 41 26 23 13 1 0 0 0 0 0 0 0
9 6 6 7 7 1 2 1 1 0 0 0 0 0 0 0 0 0 0 0 0 0 0 0 0 0 0 0 1 9 32 26 23 25 24 25 30 25 3 0 0 0 0
5 9 10 15 11 10 0 3 2 1 1 0 0 0 0 0 0 0 0 0 0 0 0 0 0 0 0 0 0 1 0 0 4 12 23 15 14 14 9 3 36 1 1
15 23 21 9 0 0 0 1 0 0 0 0 0 0 0 0 0 0 0 0 0 0 0 0 0 0 0 0 0 1 0 0 0 0 0 0 1 5 6 10 32 46 46

GFSGL_con_mucape_282.txt.gz
CAPE
0 0 0 0 0 21 183 246 938 1307 1162 852 722 779 691 626 715 807 918 812 685 815 805 689 740 858 804 923 944 1029 914 1170 1083 1014 689 764 762 798 932 770 580 614 455
0 0 0 0 0 0 0 15 262 644 1204 1608 1782 982 831 803 729 675 698 651 539 633 648 669 633 521 625 759 898 1047 1065 993 985 1070 997 721 665 902 905 732 556 440 471
0 0 0 0 0 0 0 0 10 150 319 744 970 1240 1262 1063 909 980 923 660 608 623 656 595 624 617 592 589 679 742 693 879 667 658 820 827 666 641 681 687 683 597 252
0 0 0 0 0 0 0 0 0 0 110 277 461 869 1133 1432 1171 1055 926 922 772 649 753 773 822 660 599 577 505 549 746 959 839 697 813 921 769 871 451 615 645 367 322
0 0 0 0 0 0 0 0 0 0 0 51 0 35 536 1194 1108 1282 1141 779 707 674 747 789 859 928 726 692 894 1093 1054 1118 1157 1126 948 799 600 555 615 590 398 356 253
0 0 0 0 0 0 0 0 0 0 0 0 0 0 0 284 828 1025 1021 866 879 724 678 779 759 708 696 736 756 709 762 926 879 807 798 834 875 851 788 491 442 258 273
0 0 0 4 0 0 0 0 0 0 0 0 0 0 0 0 0 334 889 984 893 760 502 678 415 708 591 514 646 717 692 574 421 833 829 823 872 887 891 539 183 297 389
0 0 0 0 0 0 0 0 0 0 0 0 0 0 0 0 0 9 135 873 890 744 516 339 66 39 66 558 789 782 809 647 560 498 465 823 1021 900 851 777 774 410 398
0 0 0 0 0 0 0 0 0 0 0 0 0 0 0 0 0 0 82 402 799 754 689 428 18 0 0 110 835 836 838 681 466 595 558 287 278 308 361 318 386 370 193
0 0 0 0 0 0 0 0 0 0 0 0 0 0 0 0 0 2 0 554 709 1295 1006 789 371 235 102 96 58 193 323 474 428 367 218 108 60 33 108 164 549 205 153
0 0 0 0 0 0 0 0 0 0 0 0 0 0 0 0 0 1 0 351 634 1204 756 805 688 510 141 64 27 161 233 251 188 73 54 24 35 72 17 133 228 178 66
0 0 0 0 0 0 0 0 0 0 0 0 0 0 2 2 0 0 14 395 926 995 769 848 679 487 124 0 0 45 168 157 51 33 14 22 83 153 184 54 81 66 76
0 0 0 0 0 0 0 0 0 0 0 0 0 0 5 8 15 75 336 660 946 931 938 887 600 267 212 148 235 185 83 56 41 45 72 123 87 103 109 160 68 66 56
0 1 0 0 0 0 0 0 0 0 0 0 2 2 11 19 334 929 641 1019 1059 916 879 792 475 296 271 250 265 152 105 106 65 51 97 108 76 65 35 80 99 54 45
0 0 1 0 1 4 2 5 11 1 0 0 2 2 22 144 436 645 669 1197 1030 1051 1002 662 437 394 399 352 521 236 84 57 22 42 35 26 8 12 8 39 125 62 77
0 0 2 0 11 19 18 56 24 7 0 0 1 0 122 113 45 423 902 937 892 873 670 583 539 635 441 198 364 206 57 3 14 17 5 13 7 0 2 3 44 38 20
0 0 1 0 0 1 51 118 299 225 381 410 319 340 283 245 373 803 715 779 604 585 492 579 470 216 171 105 49 2 30 16 10 2 0 0 0 0 1 5 8 59 76
20 23 0 0 0 4 35 98 204 378 336 321 582 573 702 760 693 711 491 495 489 345 522 328 167 148 114 42 77 97 61 337 7 14 1 1 6 6 4 7 4 6 9
12 16 10 0 0 0 17 188 188 340 356 342 388 363 358 397 394 380 303 256 319 247 135 97 80 33 17 23 34 25 21 35 62 35 7 0 19 23 7 13 9 17 22
24 12 10 11 3 0 0 6 51 98 63 151 145 144 166 243 288 378 263 202 191 74 21 23 0 1 3 6 10 12 29 16 2 0 0 0 0 0 5 2 2 0 0
6 0 1 11 17 6 19 1 0 0 0 0 0 0 4 14 80 119 113 11 43 31 22 30 27 2 9 19 7 4 3 4 0 0 0 0 0 0 6 0 0 0 0
17 5 9 20 2 4 13 11 23 1 51 0 0 0 7 10 3 5 4 4 3 3 7 3 2 2 3 26 42 38 58 45 42 29 11 1 0 0 0 0 0 0 0
31 30 5 6 17 11 9 9 11 16 10 5 6 1 0 0 0 0 1 0 0 0 14 2 24 36 61 59 39 45 36 5 0 3 5 7 14 2 0 0 0 0 0
15 42 34 4 3 3 6 1 3 7 14 18 18 10 5 2 2 3 0 0 0 0 8 0 0 0 0 0 0 0 0 0 0 0 0 0 0 0 8 7 7 3 8
1 0 7 4 2 0 0 0 0 0 0 0 0 0 0 1 1 0 1 0 0 1 0 0 0 0 0 0 0 0 0 0 0 0 0 0 0 0 0 0 4 0 0
0 0 0 0 0 0 0 0 0 0 0 0 0 0 0 0 0 0 0 0 0 0 0 0 0 0 0 0 0 0 0 0 0 0 0 0 0 0 0 0 0 0 0

GFSGL_con_mucape_285.txt.gz
CAPE
0 8 2 0 0 0 0 0 0 6 48 186 1192 1507 1384 1522 1629 1674 1811 1736 1712 1823 1934 1842 1953 2624 1685 1419 1407 1296 1084 1028 637 346 169 766 1709 1848 1533 1856 1851 1791 1342
0 0 0 0 0 0 0 0 0 0 0 2 61 322 1330 1456 1570 1812 1713 1623 1644 1705 1776 1904 1851 1719 2107 2564 1736 2425 1470 1558 1069 1802 1237 723 1728 1827 1751 2180 1825 1248 1204
0 0 0 0 0 0 0 0 0 0 0 0 0 0 0 322 1395 1406 1722 1885 1737 1797 1796 2021 1905 2143 2180 1948 2038 1936 1699 1592 1744 1565 1304 1062 755 897 1380 1721 1563 1638 1596
0 0 0 0 0 0 0 0 0 0 0 0 0 0 0 0 18 1040 1558 1267 1434 1536 1727 1945 2023 2213 2585 2780 2418 2634 2641 2122 1970 1564 1243 1165 1124 1157 1082 911 1005 834 1048
0 0 0 0 0 0 3 7 7 2 0 1 0 0 0 0 0 19 362 1293 1433 1350 1583 1673 1711 1719 1296 1489 2274 2654 2504 2169 1829 1236 1015 995 1295 1082 1350 1083 1066 923 1221
0 0 0 0 0 0 0 6 13 22 29 23 14 0 0 0 0 0 0 0 352 1549 1536 1441 1089 922 908 777 673 454 481 2106 2187 1163 942 1072 2330 1709 996 884 916 798 713
0 0 0 0 0 0 1 4 9 22 25 12 10 9 2 0 0 0 0 0 0 446 1485 1360 1450 1271 696 379 161 51 1 252 486 1683 2370 2207 2133 2247 2238 1840 1830 1322 1150
0 0 0 0 0 0 9 7 8 8 15 13 6 8 4 0 0 0 0 0 0 86 501 1243 1159 1219 628 291 4 0 0 156 518 326 890 1577 2023 2310 2629 2428 2452 2170 1728
0 0 0 0 0 0 0 23 1 19 15 24 22 33 25 9 0 0 0 0 0 1 313 1317 1219 969 764 403 12 0 0 171 685 584 523 356 372 456 796 1420 1232 813 899
0 0 0 0 0 0 40 0 38 0 0 0 0 47 33 28 0 0 0 0 0 0 48 847 859 863 851 724 222 2 1 136 798 795 907 275 181 238 243 189 634 1076 936
0 0 0 0 0 0 0 0 0 0 0 0 0 0 29 52 23 0 0 0 0 0 5 543 919 845 1029 839 745 262 167 276 458 882 743 1257 827 546 307 192 186 362 518
0 0 0 0 0 0 0 0 0 0 0 0 0 0 0 2 8 0 0 0 0 7 11 371 535 1030 1109 814 810 617 378 15 364 119 133 248 134 62 155 752 320 283 885
0 0 0 0 0 0 0 0 0 0 1 0 1 0 0 0 7 0 0 0 0 1 1 67 584 897 1034 878 733 583 428 53 17 137 53 69 102 197 497 388 418 571 674
0 0 0 0 0 0 0 0 0 2 0 6 0 0 0 0 2 3 1 181 42 100 37 386 663 1084 982 948 721 368 185 169 210 158 55 66 62 156 250 295 152 141 83
29 10 25 19 0 0 0 0 5 17 28 9 3 0 0 0 0 4 12 185 353 388 587 618 1079 910 809 837 654 470 386 329 205 151 71 80 107 170 178 227 152 121 55
83 8 24 34 0 0 1 10 1 14 35 39 94 34 6 0 0 0 1 521 335 490 476 514 754 746 754 741 551 468 381 304 161 204 205 43 32 15 18 90 88 127 75
89 185 99 56 74 0 0 0 0 3 30 62 89 195 174 133 122 6 94 167 317 438 338 573 656 549 609 533 491 375 257 171 87 53 11 2 0 0 1 3 0 0 5
84 33 85 174 185 48 0 0 1 12 13 150 164 176 340 479 414 510 613 665 527 528 594 482 454 426 459 379 278 236 132 243 29 3 0 0 0 0 2 0 2 0 0
82 77 73 114 103 41 39 0 0 0 10 42 189 156 212 386 774 682 510 452 415 413 290 277 311 333 280 205 194 80 83 10 4 6 33 34 4 4 18 13 6 9 12
78 42 23 54 78 61 144 100 0 0 0 0 2 69 108 218 228 308 309 246 129 225 207 184 136 89 56 26 7 9 86 72 22 14 2 10 2 0 9 19 15 6 14
38 48 48 52 70 117 89 109 124 72 0 0 0 0 0 5 7 21 42 120 155 143 56 37 49 26 24 5 25 20 10 6 2 4 21 2 5 2 2 1 4 3 0
24 43 52 37 25 29 44 96 76 80 56 57 122 72 0 0 0 3 3 17 15 3 2 6 2 4 8 18 15 9 12 0 12 20 12 0 0 0 0 0 0 0 19
15 22 56 33 14 3 23 13 8 4 18 37 36 23 65 55 21 0 0 0 1 2 0 28 25 55 58 53 41 16 0 0 1 26 25 18 14 2 0 0 0 0 0
6 10 31 28 12 2 13 26 34 10 5 13 15 9 15 17 16 13 15 15 3 0 2 0 0 14 3 0 0 0 0 0 0 0 1 17 41 38 3 0 8 5 0
5 8 14 16 13 0 2 10 10 15 27 40 36 45 38 19 8 1 1 1 5 7 11 7 0 0 0 0 0 0 0 0 0 0 0 0 0 0 0 0 19 46 17
18 2 3 11 7 0 0 0 0 0 0 0 5 6 3 4 12 12 0 0 0 0 0 0 0 0 0 0 0 0 0 0 0 0 0 0 0 0 0 0 0 0 0

GFSGL_con_mucape_288.txt.gz
CAPE
8 0 5 2 0 1 1 0 0 0 0 4 15 22 38 194 1340 2101 2418 2499 2844 2869 2310 2484 2982 3247 2046 1330 1204 1435 1113 926 548 260 145 282 1306 858 751 1166 912 1173 1387
0 0 0 0 0 0 0 0 0 0 0 0 0 0 7 1 54 874 1641 2022 2391 2598 2589 2835 2777 2435 3164 3329 2439 2754 1724 2034 1208 2490 1422 1006 2153 2382 1701 2076 1109 837 695
0 0 0 0 0 0 0 0 0 0 0 0 0 3 8 0 0 0 0 126 1133 2158 2299 2738 2437 2689 3108 2466 2814 2315 1937 1791 2017 1661 1502 1209 1096 947 1427 1854 1572 2072 1188
0 0 0 0 0 0 0 0 0 2 4 3 0 0 0 0 0 0 0 0 15 427 1603 1985 2019 2576 2903 3201 3160 3266 2842 1916 1606 1391 1265 1133 1080 1260 997 746 507 571 622
0 0 0 0 0 0 0 0 0 1 2 7 12 10 7 1 0 0 0 0 0 0 50 1132 1951 2112 1528 1904 2603 3250 3060 2059 1237 964 984 863 828 678 842 659 631 636 1076
0 0 0 0 0 0 0 0 0 0 0 9 10 14 13 4 0 0 0 0 0 0 0 0 0 706 1293 1301 1206 1202 1332 3192 2632 1007 671 825 2074 1717 1029 902 788 669 686
0 0 0 0 0 1 8 10 12 11 15 11 8 11 13 15 4 2 0 1 1 0 0 0 0 0 1260 2139 1363 993 943 805 832 2442 2527 1825 2158 2486 2730 2799 2449 1748 1238
0 0 1 3 5 11 19 19 29 24 30 28 24 36 41 25 10 5 9 36 12 4 0 0 0 90 559 2047 2384 2110 1714 1300 420 181 66 717 1810 2133 2839 2734 2717 2632 1696
0 0 3 17 30 22 23 33 29 29 36 46 56 92 83 64 22 18 30 45 30 11 1 0 0 0 7 195 1424 1688 1761 900 403 16 19 414 349 391 616 2075 1142 1357 1185
5 13 16 8 23 40 80 65 0 0 0 29 50 77 65 82 23 0 16 32 37 3 0 0 0 0 0 150 769 949 834 914 632 206 150 162 347 419 153 388 1128 1541 1082
12 16 44 22 20 34 101 118 0 0 0 0 0 0 40 53 69 0 0 42 31 2 0 0 0 0 0 0 145 1055 575 758 799 552 284 476 379 1111 1489 877 876 1021 1190
13 31 56 32 25 50 86 0 0 0 0 0 0 0 0 0 0 0 0 0 12 38 9 0 0 0 0 9 418 591 796 998 711 623 551 349 419 614 1385 1308 1410 1470 798
98 127 158 144 114 78 29 0 0 0 0 0 4 0 0 6 3 1 0 0 0 27 33 0 0 0 0 377 560 591 619 684 723 610 443 516 237 310 948 842 1108 1179 1709
111 152 131 162 131 79 26 0 0 0 0 0 0 0 2 8 4 0 0 29 2 0 0 5 0 0 0 0 141 320 535 640 622 609 494 452 379 446 262 259 903 1237 1019
87 72 110 147 154 143 32 2 0 1 0 4 8 16 24 4 4 5 3 32 45 24 134 19 150 227 21 158 133 372 631 468 501 458 400 185 181 235 563 981 853 1019 713
119 57 82 117 128 218 190 23 0 1 2 6 8 6 7 13 1 0 0 2 0 15 139 269 221 275 273 484 395 590 492 635 337 633 384 329 267 354 441 405 362 436 298
207 197 136 106 153 179 186 115 58 0 1 2 0 14 6 46 78 93 49 0 1 0 187 302 338 235 562 346 455 682 509 398 431 421 360 339 203 189 11 0 0 0 0
256 112 176 157 161 399 179 123 92 63 0 3 0 1 5 69 203 589 485 384 48 94 497 294 495 617 490 583 439 454 476 412 347 328 255 154 36 6 0 0 0 0 3
168 142 153 142 130 97 150 151 180 204 51 0 0 0 23 191 394 371 452 504 641 616 571 614 619 632 520 245 270 348 305 198 178 105 89 7 3 2 0 0 0 0 0
95 81 54 107 102 99 127 157 160 277 209 65 0 0 0 141 228 308 278 311 309 320 380 489 548 369 95 84 267 187 142 128 86 9 2 0 5 1 0 0 0 0 0
84 76 67 82 65 55 73 84 157 176 187 243 175 85 0 0 43 61 107 5 11 130 153 184 153 7 88 104 109 21 0 2 2 0 0 4 0 0 0 0 0 5 2
58 48 46 49 55 46 42 63 67 77 80 71 170 134 37 80 0 0 0 0 0 0 27 29 7 0 7 3 2 4 2 1 0 0 0 1 0 3 13 8 1 12 18
77 75 47 63 55 35 37 28 29 43 45 45 49 47 76 107 95 52 4 0 0 0 0 0 0 0 26 15 1 2 0 1 28 17 11 85 75 66 60 26 17 32 43
88 61 66 62 63 53 46 9 20 4 19 25 28 36 51 28 25 4 4 3 12 17 3 0 0 0 0 0 0 0 0 0 0 0 0 7 34 43 60 47 16 10 12
67 67 75 58 52 52 34 15 6 3 4 10 19 21 26 24 27 32 26 1 0 0 0 0 5 0 0 1 1 0 0 0 0 0 0 0 0 0 0 5 10 71 81
27 46 41 30 41 27 11 2 2 0 0 3 5 5 8 12 14 21 29 30 35 30 7 0 0 0 0 0 0 0 0 0 0 0 0 0 0 0 0 0 0 1 6

GFSGL_con_mucape_291.txt.gz
CAPE
40 10 0 0 35 73 24 112 71 158 306 327 359 367 258 272 395 654 1537 1445 2199 2871 3477 3232 2935 3634 1991 2142 2219 1986 1677 1535 1951 1029 653 769 2342 2082 1024 975 606 1352 895
6 0 0 0 0 0 26 3 0 18 26 51 133 246 361 396 421 405 242 194 547 1009 2044 2864 2809 3251 3283 3192 2430 2881 2789 2955 2630 2795 1983 1449 2320 2214 2507 3049 1494 816 625
10 0 15 6 0 0 0 0 0 0 0 0 5 86 178 300 321 316 400 251 162 131 394 1387 2805 3199 3439 3171 3027 2929 2109 2661 2365 2051 1929 1829 1582 1675 2119 3008 2832 2386 1107
0 0 0 1 1 0 0 0 0 0 0 0 0 2 8 78 115 250 321 346 231 45 41 261 1026 2098 2821 3386 3161 3133 2993 2746 2647 2604 2464 2070 1775 1950 1680 1557 1347 1422 1153
0 0 0 0 0 0 5 0 1 0 0 1 11 2 5 2 1 17 141 355 297 204 116 16 3 8 197 945 2565 2730 2840 2609 2663 2374 2133 1643 1719 1590 1541 1460 1228 897 1374
0 0 0 0 0 0 0 1 6 10 19 27 14 15 23 1 0 0 0 0 24 44 19 10 6 0 0 0 153 872 1475 2297 2181 2213 2144 2082 1877 1842 1476 1216 1326 1172 900
0 0 0 1 1 3 5 8 9 21 43 46 59 69 60 54 11 6 13 13 17 45 70 53 25 0 0 0 0 0 375 1216 1236 1857 2069 2518 2643 2449 2469 2757 2221 1957 1630
0 0 0 0 0 3 4 15 30 24 30 48 46 70 79 64 21 16 19 64 61 46 40 59 80 60 31 2 0 55 636 2273 1900 1477 1349 1693 1933 1555 1873 1869 2437 2963 2566
0 1 5 10 13 9 5 10 21 15 45 63 52 71 80 68 25 15 24 64 62 62 62 74 69 55 27 1 0 0 0 4 558 1037 1505 1051 774 453 311 107 218 769 768
6 8 14 15 18 23 21 52 45 42 90 46 0 0 0 0 0 0 0 56 52 37 44 44 27 32 12 11 0 3 9 18 267 971 766 598 474 250 311 410 761 624 502
13 19 17 25 72 98 64 83 99 96 85 0 0 0 0 0 0 0 0 1 1 14 28 25 26 2 1 0 0 0 0 66 700 1067 1243 889 433 855 1116 772 1088 1145 951
41 38 61 129 145 123 261 219 186 152 129 0 0 0 0 0 0 0 0 2 4 1 0 28 34 17 9 1 0 0 0 0 19 700 860 569 486 956 741 1190 1698 1725 1475
54 139 160 214 335 354 346 149 85 80 127 0 0 0 0 0 0 0 0 0 0 2 0 4 0 0 0 0 0 0 0 9 200 438 278 380 571 980 556 1499 1610 1955 1914
99 223 157 239 218 172 147 98 94 71 45 0 0 0 0 0 0 0 0 2 1 3 3 0 0 2 0 0 0 0 0 288 682 240 145 446 789 1140 992 1093 1004 1395 1410
132 45 68 77 107 163 184 93 102 164 36 0 0 0 0 0 0 0 0 0 0 3 11 22 16 17 47 23 4 1 2 497 209 307 520 392 661 689 708 799 1190 1353 749
148 78 81 70 61 88 69 71 12 0 17 47 0 0 0 0 0 0 0 0 0 0 1 4 9 15 16 73 235 421 544 371 239 513 786 1088 736 1128 965 1227 1322 1124 905
370 193 108 64 68 46 47 109 114 123 46 45 50 0 0 0 0 0 18 295 140 93 0 0 0 45 78 42 838 669 688 910 833 688 725 473 316 304 326 346 389 224 136
275 94 157 53 60 58 80 142 95 165 213 132 78 16 0 0 0 16 188 259 283 180 14 0 0 0 126 278 642 891 816 910 756 673 442 380 333 291 267 400 356 212 66
132 77 63 53 115 54 78 92 107 151 224 226 274 79 0 2 0 20 56 141 275 259 308 311 183 97 144 434 686 660 626 606 612 490 336 321 293 165 375 242 105 0 0
104 54 44 56 48 56 102 74 72 141 220 221 238 139 30 0 0 4 31 59 104 136 181 256 320 420 480 429 411 360 442 398 361 322 228 144 115 237 182 7 0 0 0
86 59 48 51 46 56 83 127 126 82 247 100 72 109 2 56 34 0 0 0 0 0 26 90 145 152 220 293 257 226 35 68 4 29 116 113 20 40 16 8 2 4 7
96 101 74 55 97 87 84 117 125 75 76 50 35 70 2 45 44 69 4 0 0 0 0 0 0 1 3 8 28 3 7 0 0 5 23 4 3 2 0 0 0 4 0
90 85 79 91 71 55 93 58 67 65 42 46 26 34 69 22 34 44 50 47 9 38 0 0 0 0 0 3 0 0 14 19 29 52 18 33 6 9 52 44 50 35 60
78 73 66 61 80 48 55 55 53 6 14 23 21 28 34 32 15 8 2 7 20 2 15 0 0 0 0 0 0 0 0 2 6 46 39 15 29 8 8 10 57 44 34
46 49 70 76 103 78 67 43 2 6 9 16 12 9 17 12 13 21 11 3 0 0 0 0 0 0 0 0 0 0 0 0 0 0 0 0 1 20 28 36 11 57 32
12 62 55 43 64 71 55 5 5 5 3 8 17 18 22 15 6 12 6 9 19 24 15 1 0 0 0 0 0 0 0 0 0 0 0 0 0 0 0 0 0 0 8

GFSGL_con_mucape_297.txt.gz
CAPE
203 133 101 81 88 83 51 26 24 0 0 0 0 0 0 0 0 0 0 0 0 0 0 0 0 152 460 1186 1866 1814 1445 1286 1342 1409 1284 1311 1253 1356 1401 1375 474 727 960
246 187 161 118 155 106 1 0 0 0 0 0 0 0 0 0 0 0 0 0 0 0 0 0 0 0 0 0 7 937 1860 1693 1510 1243 1166 1227 1260 1013 987 1374 1298 746 647
168 58 67 48 0 0 0 0 0 0 0 0 0 0 0 0 0 0 0 0 0 0 0 0 0 0 0 0 0 0 0 707 1779 1599 1099 1305 1398 1294 1346 1472 1361 1119 1153
222 11 1 5 0 0 0 0 0 0 0 0 0 0 0 0 0 0 0 0 0 0 0 0 0 0 0 1 7 1 0 155 538 947 1291 1394 1254 1235 1136 1136 986 1049 1222
0 0 0 0 0 0 0 0 0 0 0 0 0 0 0 0 0 0 0 0 0 0 0 0 0 0 0 0 4 5 2 3 0 3 0 93 366 1141 1250 1215 1036 1082 1228
0 0 0 0 0 0 0 0 0 0 0 0 0 0 0 0 0 0 0 0 0 0 0 0 0 7 2 0 0 0 10 7 1 0 0 0 0 0 525 1040 1215 1259 1110
0 0 0 0 0 0 0 0 0 0 0 0 0 0 0 0 0 0 0 0 0 0 0 0 0 9 15 5 2 0 0 0 6 1 0 0 0 0 0 220 575 916 846
0 0 0 0 0 0 0 0 0 0 0 0 0 0 0 0 0 0 0 0 0 0 0 0 0 0 0 6 8 3 0 0 0 8 5 0 0 0 0 0 0 302 567
0 0 3 0 0 0 0 0 0 0 0 0 0 0 0 0 0 0 0 0 0 0 0 0 0 0 0 0 15 22 10 0 0 0 0 9 19 0 0 6 11 111 443
0 10 5 0 5 0 0 0 6 24 27 13 0 0 0 0 0 0 0 0 0 0 0 0 0 0 0 0 0 0 0 2 7 0 13 14 2 1 0 0 0 10 4
12 2 11 3 8 7 32 54 46 55 63 51 26 10 0 0 0 0 2 0 0 0 0 0 0 0 0 0 0 0 0 9 6 2 0 0 0 38 19 4 0 0 0
50 67 37 53 53 73 66 59 81 86 78 58 46 28 1 6 4 4 2 0 0 0 0 0 0 0 0 0 0 3 0 0 0 12 7 5 3 8 4 11 0 118 431
121 34 40 47 49 82 123 105 110 114 93 56 13 1 3 6 10 9 0 0 0 0 0 0 0 1 0 0 0 0 0 0 5 0 4 2 0 0 0 6 151 267 379
143 47 56 66 82 42 37 66 139 97 101 18 18 1 3 14 28 9 0 0 0 0 0 0 0 0 0 0 0 0 2 0 2 0 0 0 5 17 7 0 52 97 484
237 115 94 68 67 41 60 54 40 26 36 10 0 0 31 36 28 6 0 1 0 0 0 0 0 1 0 0 0 5 3 8 4 6 2 3 15 42 59 40 69 180 303
323 217 107 57 55 80 79 85 48 26 20 12 11 18 25 33 13 0 0 0 0 1 0 0 0 2 2 4 7 9 4 13 18 10 14 12 29 13 11 74 144 195 160
349 250 207 189 163 102 32 38 48 2 29 11 14 16 14 12 0 0 0 0 0 0 0 0 0 6 0 12 4 0 2 3 2 19 17 33 43 0 0 145 251 396 246
413 401 302 236 160 51 61 20 9 23 12 3 11 0 14 4 0 0 0 0 0 0 0 0 0 0 7 30 28 32 42 7 2 9 3 122 155 182 292 376 454 403 434
291 197 144 114 61 48 31 11 24 32 28 22 7 22 4 1 0 0 0 0 0 0 0 0 0 0 21 34 31 57 83 52 85 59 187 259 412 367 438 574 550 500 463
262 245 181 102 51 46 26 28 12 4 16 11 9 14 2 0 0 0 0 0 0 0 0 0 0 0 0 0 15 69 131 162 175 363 348 442 247 439 422 479 437 460 544
158 45 29 33 39 46 28 19 17 13 18 21 9 23 0 0 0 0 0 0 0 0 0 0 0 0 0 0 0 0 0 13 36 40 98 157 154 127 133 202 271 162 279
29 33 33 42 28 29 28 33 25 20 25 6 1 5 0 0 0 0 0 0 0 0 0 0 0 0 0 1 5 3 0 0 0 0 2 30 68 73 15 32 53 60 62
10 11 11 3 8 28 46 24 32 26 25 6 0 2 0 0 0 1 0 0 0 0 0 0 0 0 0 0 0 0 0 0 0 0 1 13 6 0 1 0 0 7 2
36 0 0 7 9 7 8 26 52 55 43 48 29 1 1 5 0 0 0 0 0 0 0 0 0 0 0 0 0 0 0 0 0 0 0 0 0 0 0 0 0 10 50
0 0 0 0 0 4 12 23 67 48 57 58 11 13 19 0 0 0 0 0 0 0 0 0 0 0 0 0 0 0 0 0 0 0 0 0 0 0 15 0 0 0 0
0 0 0 0 11 39 53 26 55 37 53 33 35 20 31 14 4 9 0 0 0 0 4 0 0 0 0 0 0 0 0 0 0 0 0 0 0 0 0 3 1 2 2